Flag for Germany Weather past 2 weeks in Zittau, Saxony, Germany

Now
66 °F

Sunny.


Feels Like: 66 °F
Forecast: 58 / 71 °F
Wind: 5 mph from North

Location: Dresden-Klotzsche

Current Time: Jul 23, 2014 at 9:24:29 AM

Latest Report: Jul 23, 2014 at 7:50 AM


Visibility: 10 mi

Pressure: 30.07 "Hg

Humidity: 68%

Dew point: 55 °F

Location of ZittauLocation

Historic Weather in Zittau — Graph

°F

Zittau temperature yesterday

Maximum temperature yesterday: 82 °F (at 4:20 PM)
Minimum temperature yesterday: 64 °F (at 5:20 AM)
Average temperature yesterday: 74 °F

Past Weeks' High & Low Weather Summary

 TemperatureHumidityPressure
High90 °F (Jul 20, 2:20 PM)100% (Jul 10, 8:50 AM)30.18 "Hg (Jul 10, 8:50 AM)
Low52 °F (Jul 12, 4:50 AM)24% (Jul 20, 3:50 PM)29.53 "Hg (Jul 9, 6:50 AM)
Average69 °F68%29.92 "Hg
* Reported Jul 8 7:20 AM — Jul 23 7:20 AM, Zittau, Weather by CustomWeather, © 2014

Note: Actual official high and low records may vary slightly from our data, if they occured in-between our weather recording intervals... More about our weather records

Advertising

Zittau weather history for previous 24 hours

 ConditionsComfort  
Time TempWeatherWind HumidityBarometerVisibility
7:20 AM
Jul 23
64 °FSunny.3 mph73%30.07 "Hg10 mi
6:50 AM63 °FSunny.3 mph77%30.07 "Hg10 mi
6:20 AM61 °FSunny.3 mph77%30.07 "Hg10 mi
5:50 AM61 °FClear.5 mph77%30.07 "Hg10 mi
5:20 AM61 °FClear.5 mph77%30.07 "Hg10 mi
4:50 AM63 °FClear.3 mph68%30.04 "Hg10 mi
4:20 AM63 °FClear.2 mph73%30.04 "Hg10 mi
3:50 AM63 °FClear.1 mph68%30.04 "Hg10 mi
3:20 AM63 °FClear.1 mph68%30.04 "Hg10 mi
2:50 AM64 °FClear.6 mph64%30.04 "Hg10 mi
2:20 AM66 °FClear.8 mph60%30.04 "Hg10 mi
1:50 AM66 °FClear.10 mph60%30.04 "Hg10 mi
6:50 PM
Jul 22
81 °FSunny.13 mph34%29.98 "Hg10 mi
6:20 PM82 °FSunny.13 mph35%29.95 "Hg10 mi
5:50 PM81 °FSunny.12 mph34%29.95 "Hg10 mi
5:20 PM81 °FSunny.14 mph37%29.95 "Hg10 mi
4:50 PM82 °FSunny.13 mph35%29.95 "Hg10 mi
4:20 PM82 °FSunny.14 mph37%29.95 "Hg10 mi
3:50 PM81 °FSunny.14 mph39%29.98 "Hg10 mi
3:20 PM79 °FSunny.13 mph42%29.98 "Hg10 mi
2:50 PM81 °FSunny.14 mph39%29.98 "Hg10 mi
2:20 PM81 °FSunny.14 mph42%29.98 "Hg10 mi
1:50 PM81 °FSunny.14 mph39%29.98 "Hg10 mi
1:20 PM79 °FSunny.17 mph39%29.98 "Hg10 mi
12:50 PM79 °FSunny.13 mph42%29.98 "Hg10 mi
12:20 PM79 °FSunny.16 mph39%29.98 "Hg10 mi
11:50 AM79 °FSunny.16 mph45%29.95 "Hg10 mi
11:20 AM79 °FPassing clouds.12 mph42%29.95 "HgN/A
10:50 AM77 °FPassing clouds.12 mph51%29.95 "HgN/A
10:20 AM77 °FSunny.9 mph51%29.95 "Hg10 mi
9:50 AM75 °FSunny.9 mph54%29.95 "Hg10 mi
9:20 AM73 °FSunny.8 mph61%29.95 "Hg10 mi
Weather by CustomWeather, © 2014

See weather overviewHow to use our weather pages